Main page
Satellite images Climate Cyclones Lightning AirportsFAQ Languages Contact Newsletter About
Weather : Europe Africa North America South America Asia Australia-Oceania Others

bangkok-th, Bangkok-Suvarnabhumi, Suvarnabhumi Airport

48455

latitude: , longitude: Thailand, elevation: 13-40-52N m


METAR: VTBS 250330Z 18010KT 160V230 9999 FEW020 35/26 Q1009 NOSIG